Regional Weather Roundup
Issued by NWS

Home | Current Version | Previous Version | Text Only | Print | Product List | Glossary On
Versions: 1 2 3 4 5 6 7 8 9 10 11 12 13 14 15 16 17 18 19 20 21 22 23 24 25 26 27 28 29 30 31 32 33 34 35 36 37 38 39 40 41 42 43 44 45 46 47 48 49 50
000
ASUS43 KLSX 261507
RWRMO

WEATHER SUMMARY FOR MISSOURI
NATIONAL WEATHER SERVICE SPRINGFIELD MO
900 AM CST FRI DEC 26 2014

NOTE: "FAIR" INDICATES FEW OR NO CLOUDS BELOW 12,000 FEET WITH NO
       SIGNIFICANT WEATHER AND/OR OBSTRUCTIONS TO VISIBILITY.
       CURRENT SKY AND/OR WEATHER CONDITIONS ARE NOT AVAILABLE FOR
       CHILLICOTHE AND FARMINGTON.

MOZ001>031-035>038-043-044-053-054-261600-
...NORTHERN AND WESTERN MISSOURI...

CITY           SKY/WX    TMP DP  RH WIND       PRES   REMARKS
KANSAS CTY INT CLOUDY    45  36  70 S7        29.93R
KANSAS C DTWN  CLOUDY    48  38  68 SW8       29.93R
LEE`S SUMMIT   CLOUDY    43  35  73 S7        29.94R
ST JOSEPH      CLOUDY    34  31  88 NW8       29.95R WCI  27
CHILLICOTHE      N/A     46  36  68 S8        29.96R
KIRKSVILLE     CLOUDY    44  37  76 S8        29.97R

$$
MOZ066>068-077>081-088>096-101>105-261600-
...SOUTHWEST MISSOURI...

CITY           SKY/WX    TMP DP  RH WIND       PRES   REMARKS
SPRINGFIELD    MOSUNNY   45  38  76 S18       30.02R
JOPLIN         PTSUNNY   51  43  74 S15       29.98R

$$
MOZ032>034-039>042-045>050-055>058-069>072-261600-
...CENTRAL MISSOURI...

CITY           SKY/WX    TMP DP  RH WIND       PRES   REMARKS
COLUMBIA       PTSUNNY   45  38  76 S13       30.02R
JEFFERSON CITY MOSUNNY   47  38  71 S8        30.04R
ROLLA          SUNNY     45  38  76 S17       30.03R
SEDALIA        PTSUNNY   46  37  71 S14       29.99R
WHITEMAN AFB   PTSUNNY   47  39  74 S16       29.97R
WARRENSBURG    CLOUDY    45  36  70 S9        29.97R
OSAGE BEACH    MOSUNNY   46  37  71 S9        30.03R

$$
MOZ051-052-059>065-261600-
...EAST CENTRAL MISSOURI...

CITY           SKY/WX    TMP DP  RH WIND       PRES   REMARKS
ST LOUIS INTL  PTSUNNY   46  37  71 S10       30.08R
SPIRIT OF STL  MOSUNNY   47  38  71 SW9       30.06R
ST CHARLES     SUNNY     42  37  82 E5        30.08R

$$
MOZ072>076-082>087-097>100-106>115-261600-
...SOUTH CENTRAL AND SOUTHEAST MISSOURI...

CITY           SKY/WX    TMP DP  RH WIND       PRES   REMARKS
CAPE GIRARDEAU CLOUDY    43  37  79 S14       30.21R
FARMINGTON     SUNNY     43  37  81 SE10      30.14R
POPLAR BLUFF   CLOUDY    42  36  79 S7        30.19S
WEST PLAINS    MOSUNNY   40  36  86 S7        30.12R

$$


USA.gov is the U.S. government's official web portal to all federal, state and local government web resources and services.